#timestamp,LO_Frequency,Hit,StdDev 
1502438415.6,286046999.0,P,0.6
1502438435.5,286046999.5,N,0.7
1502438455.3,286046999.2,N,0.6
1502438475.1,286046996.8,Y,0.0
1502438495.9,286046998.5,P,0.2
1502438515.7,286046999.4,P,0.4
1502438535.6,286046999.3,N,0.4
1502438555.4,286046998.4,Y,0.0
1502438575.2,286047000.7,P,0.8
1502438595.1,286046998.6,N,0.9
1502438596.0,286046998.6,N,0.9
1502438615.8,286046998.2,N,0.9
1502438635.7,286047001.1,N,1.1
1502438655.5,286046998.3,N,1.1
1502438675.3,286046998.8,N,1.0
1502438695.2,286047001.2,N,1.2
1502438715.0,286046998.1,N,1.2
1502438715.9,286046998.1,N,1.2
1502438735.8,286046998.6,N,1.1
1502438755.6,286047001.1,N,1.2
1502438775.4,286047001.1,N,1.3
1502438795.3,286047001.1,N,1.3
1502438815.1,286046998.1,N,1.3
1502438835.9,286046998.4,N,1.3
1502438855.7,286047000.8,N,1.3
1502438875.5,286047011.9,Y,0.0
1502438895.4,286046998.3,P,0.6
1502438915.2,286046998.3,P,0.5
1502438935.1,286046999.3,N,0.5
1502438936.0,286046999.3,N,0.5
1502438955.8,286046999.3,N,0.5
1502438975.6,286046999.3,N,0.5
1502438995.5,286046996.6,Y,0.0
1502439015.3,286046998.6,P,0.2
1502439035.2,286046998.8,P,0.2
1502439055.0,286046998.7,P,0.2
1502439055.9,286046998.7,Y,0.0
1502439075.7,286047000.7,P,1.0
1502439095.6,286047000.9,N,1.0
1502439115.4,286047001.2,N,0.9
1502439135.3,286047000.9,N,0.9
1502439155.1,286047000.8,N,0.8
1502439175.8,286046998.9,N,0.9
1502439195.7,286046998.9,N,1.0
1502439215.5,286046999.4,N,1.0
1502439235.4,286046998.4,N,1.0
1502439255.2,286046999.4,N,1.0
1502439275.0,286046998.4,N,1.0
1502439276.0,286046998.4,N,1.1
1502439295.8,286046998.7,N,1.0
1502439315.6,286046998.7,N,1.0
1502439335.5,286046998.3,N,1.0
1502439355.3,286046998.7,N,1.0
1502439375.1,286046999.1,N,1.0
1502439395.9,286046996.8,Y,0.0
1502439415.7,286046996.9,P,1.2
1502439435.6,286046996.6,N,1.2
1502439455.4,286046999.4,N,1.3
1502439475.2,286046997.3,N,1.2
1502439495.1,286046996.7,N,1.2
1502439496.0,286046996.7,N,1.2
1502439515.8,286046997.1,N,1.1
1502439535.7,286046996.9,N,1.1
1502439555.5,286046997.4,N,1.0
1502439575.3,286046997.2,N,1.0
1502439595.2,286046997.3,N,0.9
1502439615.0,286046999.3,N,1.0
1502439615.9,286046999.3,N,1.1
1502439635.8,286046998.4,N,1.1
1502439655.6,286046996.5,Y,0.0
1502439675.4,286047001.2,P,1.7
1502439695.3,286047000.7,N,1.5
1502439715.1,286047000.9,N,1.4
1502439735.9,286047000.1,N,1.3
1502439755.7,286047000.3,N,1.1
1502439775.5,286047001.2,N,1.1
1502439795.4,286047002.5,N,1.3
1502439815.2,286047000.1,N,1.2
1502439835.0,286047000.9,N,1.2
1502439835.9,286047000.9,N,1.1
1502439855.8,286047000.9,N,1.1
1502439875.6,286046999.8,N,1.0
1502439895.5,286047000.1,N,1.0
1502439915.3,286046999.8,N,1.0
1502439935.1,286047001.8,N,1.0
1502439955.9,286047003.9,Y,0.0
1502439975.7,286047002.5,P,1.0
1502439995.6,286047001.5,N,0.8
1502440015.4,286047001.3,N,0.7
1502440035.2,286047001.9,N,0.6
1502440055.1,286047001.3,N,0.6
1502440056.0,286047001.3,N,0.6
1502440075.8,286047003.9,Y,0.0
1502440095.7,286046999.8,P,0.8
1502440115.5,286047002.6,P,1.2
1502440135.3,286047003.7,P,1.4
1502440155.2,286047001.9,N,1.3
1502440175.0,286047001.8,N,1.2
1502440175.9,286047001.8,N,1.1
1502440195.8,286047000.4,N,1.1
1502440215.6,286046999.7,N,1.2
1502440235.4,286047000.3,N,1.2
1502440255.3,286046999.7,N,1.3
1502440275.1,286047002.0,N,1.2
1502440295.9,286047002.1,N,1.2
1502440315.7,286043239.2,Y,0.0
1502440335.5,286046999.9,P,0.7
1502440355.4,286046999.9,N,0.7
1502440375.2,286047002.8,P,1.2
1502440395.1,286047002.5,N,1.2
1502440396.0,286047002.5,N,1.2
1502440415.8,286047002.4,N,1.2
1502440435.6,286047002.4,N,1.1
1502440455.5,286047002.1,N,1.1
1502440475.3,286046999.8,N,1.2
1502440495.2,286047002.3,N,1.1
1502440515.9,286046999.8,N,1.2
1502440535.7,286046999.7,N,1.2
1502440555.6,286047001.5,N,1.2
1502440575.4,286047002.1,N,1.2
1502440595.3,286047002.6,N,1.2
1502440615.1,286047000.2,N,1.2
1502440616.0,286047000.2,N,1.2
1502440635.8,286047002.3,N,1.2
1502440655.7,286047001.9,N,1.1
1502440675.5,286047002.4,N,1.1
1502440695.4,286047002.1,N,1.1
1502440715.2,286047001.6,N,1.1
1502440735.0,286047004.3,Y,0.0
1502440735.9,286047004.3,P,1.4
1502440755.8,286047002.6,N,1.2
1502440775.6,286047000.2,N,1.5
1502440795.5,286047002.1,N,1.3
1502440815.3,286047002.0,N,1.2
1502440835.1,286047002.7,N,1.2
1502440855.9,286046999.8,N,1.3
1502440875.7,286047000.5,N,1.3
1502440895.5,286047002.6,N,1.3
1502440915.4,286047002.0,N,1.2
1502440935.2,286047002.6,N,1.2
1502440955.1,286047000.1,N,1.3
1502440956.0,286047000.1,N,1.3
1502440975.8,286047002.8,N,1.3
1502440995.6,286047002.3,N,1.2
1502441015.5,286047001.9,N,1.2
1502441035.3,286047002.1,N,1.2
1502441055.2,286047004.0,Y,0.0
1502441075.9,286047004.4,P,1.3
1502441095.7,286047004.3,P,1.2
1502441115.6,286047002.6,N,1.1
1502441135.4,286047002.8,N,1.0
1502441155.3,286047002.4,N,1.0
1502441175.1,286047002.7,N,0.9
1502441176.0,286047002.7,N,0.9
1502441195.8,286047000.2,N,1.2
1502441215.7,286047000.2,N,1.3
1502441235.5,286046999.7,N,1.5
1502441255.3,286046999.9,N,1.6
1502441275.2,286047000.7,N,1.5
1502441295.0,286046998.2,N,1.8
1502441295.9,286046998.2,N,1.9
1502441315.8,286046998.3,N,2.0
1502441335.6,286047000.8,N,1.9
1502441355.5,286047000.9,N,1.9
1502441375.3,286047000.0,N,1.8
1502441395.1,286047000.0,N,1.8
1502441415.9,286047000.5,N,1.8
1502441435.7,286047000.7,N,1.7
1502441455.5,286047000.3,N,1.7
1502441475.4,286047000.5,N,1.7
1502441495.2,286047000.6,N,1.6
1502441515.1,286047000.5,N,1.6
1502441516.0,286047000.5,N,1.6
1502441535.8,286047002.8,N,1.6
1502441555.6,286047002.2,N,1.6
1502441575.5,286047002.1,N,1.6
1502441595.3,286047002.3,N,1.6
1502441615.2,286047002.4,N,1.5
1502441635.9,286047002.6,N,1.4
1502441655.7,286047002.0,N,1.4
1502441675.6,286047002.8,N,1.4
1502441695.4,286047000.6,N,1.3
1502441715.3,286047000.4,N,1.3
1502441735.1,286047000.4,N,1.2
1502441736.0,286047000.4,N,1.2
1502441755.8,286047002.3,N,1.3
1502441775.7,286046999.9,N,1.3
1502441795.5,286047000.5,N,1.2
1502441815.3,286046999.8,N,1.3
1502441835.2,286047000.1,N,1.2
1502441855.0,286047000.5,N,1.1
1502441855.9,286047000.5,N,1.0
1502441875.8,286047000.3,N,1.0
1502441895.6,286047000.2,N,1.0
1502441915.4,286047001.8,N,1.0
1502441935.3,286047001.6,N,1.0
1502441955.1,286047004.1,Y,0.0
1502441975.9,286047001.6,P,0.3
1502441995.7,286047000.0,N,0.7
